{"data":{"norad_id":63723,"epoch":"2026-09-20T12:54:35.794656Z","epoch_age_seconds":149354,"freshness":"FRESH","line1":"1 63723U 25087AC  26263.53791429  .00022285  00000+0  66874-3 0  9994","line2":"2 63723  53.1585  33.6606 0000979  78.5778 281.5334 15.34400317 79045","mean_motion":15.34400317,"eccentricity":9.79e-5,"inclination_deg":53.1585,"raan_deg":33.6606,"arg_perigee_deg":78.5778,"mean_anomaly_deg":281.5334,"bstar":0.00066874,"rev_number":7904,"period_min":93.847738692822,"perigee_km":462.03257984919,"apogee_km":463.37201618374,"semimajor_km":6840.8392980165,"source":"CELESTRAK","updated_at":"2026-09-21T09:00:35.092113Z"}}